Flag for Japan

Past Weather in Odawara, Japan — Yesterday and Last 2 Weeks

Now
77 °F

Warm.


Feels Like: 79 °F
Forecast: 80 / 72 °F
Wind: 13 mph from West

Location: Ajiro

Current Time: Jul 5, 2020 at 4:26:08 am

Latest Report: Jul 5, 2020 at 3:00 am


Visibility: 13 mi

Pressure: 29.65 "Hg

Humidity: 88%

Dew Point: 74 °F

Location of OdawaraLocation

Past Weather in Odawara — Graph

°F

Odawara Temperature Yesterday

Maximum temperature yesterday: 81 °F (at 12:00 pm)
Minimum temperature yesterday: 67 °F (at 1:00 am)
Average temperature yesterday: 75 °F

High & Low Weather Summary for the Past Weeks

 TemperatureHumidityPressure
High85 °F (Jul 2, 3:00 pm)100% (Jun 24, 3:00 am)29.99 "Hg (Jun 24, 3:00 am)
Low64 °F (Jun 20, 4:00 am)51% (Jul 2, 3:00 pm)29.50 "Hg (Jun 28, 11:00 am)
Average74 °F84%29.75 "Hg
* Reported Jun 20 2:00 am — Jul 5 2:00 am, Odawara. Weather by CustomWeather, © 2020

Note: Actual official high and low records may vary slightly from our data, if they occured in-between our weather recording intervals... More about our weather records

Odawara Weather History for the Previous 24 Hours

Scroll right to see more
 ConditionsComfort  
Time TempWeatherWind HumidityBarometerVisibility
2:00 am
Sun, Jul 5
78 °FWarm.21 mph85%29.64 "Hg12 mi
1:00 am78 °FLight rain. Overcast.16 mph89%29.64 "Hg12 mi
12:00 am78 °FLight rain. Overcast.14 mph91%29.65 "Hg5 mi
11:00 pm
Sat, Jul 4
79 °FLight rain. Overcast.18 mph89%29.65 "Hg10 mi
10:00 pm79 °FLight rain. Overcast.13 mph87%29.65 "Hg9 mi
9:00 pm79 °FLight rain. Overcast.9 mph88%29.66 "Hg6 mi
8:00 pm78 °FLight rain. Overcast.8 mph86%29.65 "Hg6 mi
6:00 pm78 °FLight rain. Cloudy.10 mph87%29.65 "Hg12 mi
4:00 pm78 °FLight rain. Cloudy.14 mph86%29.66 "Hg12 mi
3:00 pm79 °FLight rain. Cloudy.10 mph85%29.66 "Hg4 mi
1:00 pm78 °FLight rain. Cloudy.20 mph80%29.69 "Hg11 mi
12:00 pm81 °FWarm.18 mph73%29.70 "Hg12 mi
10:00 am80 °FLight rain. Cloudy.9 mph74%29.70 "Hg12 mi
9:00 am78 °FWarm.14 mph77%29.71 "Hg12 mi
8:00 am79 °FLight rain. Cloudy.13 mph82%29.71 "Hg9 mi
6:00 am68 °FRain. Cloudy.1 mph100%29.74 "Hg1 mi
5:00 am67 °FLight rain. Cloudy.1 mph100%29.77 "Hg3 mi
4:00 am67 °FRain. Overcast.No wind100%29.80 "Hg1 mi
Weather by CustomWeather, © 2020

See weather overview